Time,TemperatureF,DewpointF,PressureIn,WindDirection,WindDirectionDegrees,WindSpeedMPH,WindSpeedGustMPH,Humidity,HourlyPrecipIn,Conditions,Clouds,dailyrainin,SoftwareType,DateUTC
2013-02-23 00:00:00,34.9,31.1,30.09,ENE,61,0.0,0.0,86,0.00,,---,0.00,VWS V14.00,2013-02-23 05:00:00,
2013-02-23 00:05:00,34.9,31.1,30.09,NE,46,0.0,2.7,86,0.00,,---,0.00,VWS V14.00,2013-02-23 05:05:00,
2013-02-23 00:10:00,34.9,31.1,30.09,ENE,63,0.0,0.0,86,0.00,,---,0.00,VWS V14.00,2013-02-23 05:10:00,
2013-02-23 00:15:00,34.9,31.1,30.06,NE,48,0.0,0.0,86,0.00,,---,0.00,VWS V14.00,2013-02-23 05:15:00,
2013-02-23 00:20:00,34.9,31.1,30.06,NE,49,0.0,0.0,86,0.00,,---,0.00,VWS V14.00,2013-02-23 05:20:00,
2013-02-23 00:25:00,34.9,31.1,30.06,NE,51,0.0,0.0,86,0.00,,---,0.00,VWS V14.00,2013-02-23 05:25:00,
2013-02-23 00:30:00,34.9,31.1,30.09,NE,51,0.0,0.0,86,0.00,,---,0.00,VWS V14.00,2013-02-23 05:30:00,
2013-02-23 00:35:00,34.9,31.4,30.09,NE,51,0.0,0.0,87,0.00,,---,0.00,VWS V14.00,2013-02-23 05:35:00,
2013-02-23 00:41:00,34.9,31.4,30.09,NE,53,0.0,0.0,87,0.00,,---,0.00,VWS V14.00,2013-02-23 05:41:00,
2013-02-23 00:46:00,34.7,31.2,30.06,West,275,0.0,0.0,87,0.00,,---,0.00,VWS V14.00,2013-02-23 05:46:00,
2013-02-23 00:51:00,34.7,31.2,30.06,West,275,0.0,0.0,87,0.00,,---,0.00,VWS V14.00,2013-02-23 05:51:00,
2013-02-23 00:56:00,34.9,31.4,30.06,West,275,0.0,0.0,87,0.00,,---,0.00,VWS V14.00,2013-02-23 05:56:00,
2013-02-23 01:01:00,34.9,31.4,30.09,West,275,0.0,0.0,87,0.00,,---,0.00,VWS V14.00,2013-02-23 06:01:00,
2013-02-23 01:06:00,34.9,31.4,30.09,NNW,340,0.0,0.0,87,0.00,,---,0.00,VWS V14.00,2013-02-23 06:06:00,
2013-02-23 01:11:00,34.9,31.4,30.09,NNW,340,0.0,0.0,87,0.00,,---,0.00,VWS V14.00,2013-02-23 06:11:00,
2013-02-23 01:16:00,34.9,31.4,30.09,NE,38,0.0,0.0,87,0.00,,---,0.00,VWS V14.00,2013-02-23 06:16:00,
2013-02-23 01:21:00,34.9,31.4,30.09,NE,38,0.0,0.0,87,0.00,,---,0.00,VWS V14.00,2013-02-23 06:21:00,
2013-02-23 01:26:00,34.9,31.4,30.09,NE,38,0.0,0.0,87,0.00,,---,0.00,VWS V14.00,2013-02-23 06:26:00,
2013-02-23 01:31:00,34.9,31.4,30.06,NE,42,0.0,0.0,87,0.00,,---,0.00,VWS V14.00,2013-02-23 06:31:00,
2013-02-23 01:36:00,34.9,31.4,30.06,NNE,30,0.0,0.0,87,0.00,,---,0.00,VWS V14.00,2013-02-23 06:36:00,
2013-02-23 01:41:00,34.9,31.4,30.06,NNE,24,2.7,2.7,87,0.00,,---,0.00,VWS V14.00,2013-02-23 06:41:00,
2013-02-23 01:46:00,34.9,31.4,30.06,NNE,32,3.1,3.6,87,0.00,,---,0.00,VWS V14.00,2013-02-23 06:46:00,
2013-02-23 01:51:00,34.9,31.4,30.06,SE,135,0.0,4.0,87,0.00,,---,0.00,VWS V14.00,2013-02-23 06:51:00,
2013-02-23 01:56:00,34.9,31.7,30.06,ENE,58,0.0,0.0,88,0.00,,---,0.00,VWS V14.00,2013-02-23 06:56:00,
2013-02-23 02:01:00,34.9,31.7,30.06,South,172,0.0,0.0,88,0.00,,---,0.00,VWS V14.00,2013-02-23 07:01:00,
2013-02-23 02:06:00,34.9,31.7,30.06,NE,56,0.0,0.0,88,0.00,,---,0.00,VWS V14.00,2013-02-23 07:06:00,
2013-02-23 02:12:00,34.9,31.7,30.06,South,176,0.0,0.0,88,0.00,,---,0.00,VWS V14.00,2013-02-23 07:12:00,
2013-02-23 02:17:00,34.9,31.7,30.06,NE,50,2.2,2.2,88,0.00,,---,0.00,VWS V14.00,2013-02-23 07:17:00,
2013-02-23 02:22:00,34.9,31.7,30.06,NNE,22,5.8,5.8,88,0.00,,---,0.00,VWS V14.00,2013-02-23 07:22:00,
2013-02-23 02:27:00,34.9,31.7,30.06,SSW,211,2.2,2.2,88,0.00,,---,0.00,VWS V14.00,2013-02-23 07:27:00,
2013-02-23 02:32:00,34.9,31.7,30.00,SE,143,3.6,3.6,88,0.00,,---,0.00,VWS V14.00,2013-02-23 07:32:00,
2013-02-23 02:37:00,34.9,31.7,30.00,NE,39,0.0,0.0,88,0.00,,---,0.00,VWS V14.00,2013-02-23 07:37:00,
2013-02-23 02:42:00,34.9,31.7,30.00,SSW,201,0.0,0.0,88,0.00,,---,0.00,VWS V14.00,2013-02-23 07:42:00,
2013-02-23 02:47:00,34.9,31.7,30.00,East,79,0.0,0.0,88,0.00,,---,0.00,VWS V14.00,2013-02-23 07:47:00,
2013-02-23 02:52:00,34.9,31.7,30.00,NE,44,0.0,4.0,88,0.00,,---,0.00,VWS V14.00,2013-02-23 07:52:00,
2013-02-23 02:57:00,34.9,31.7,30.00,NE,49,0.0,0.0,88,0.00,,---,0.00,VWS V14.00,2013-02-23 07:57:00,
2013-02-23 03:02:00,34.9,31.7,30.00,NE,49,0.0,0.0,88,0.00,,---,0.00,VWS V14.00,2013-02-23 08:02:00,
2013-02-23 03:07:00,34.9,31.7,30.00,ENE,70,0.0,2.7,88,0.00,,---,0.00,VWS V14.00,2013-02-23 08:07:00,
2013-02-23 03:13:00,34.7,31.5,30.00,SSE,152,0.0,0.0,88,0.00,,---,0.00,VWS V14.00,2013-02-23 08:13:00,
2013-02-23 03:18:00,34.9,31.7,29.97,SE,126,0.0,0.0,88,0.00,,---,0.00,VWS V14.00,2013-02-23 08:18:00,
2013-02-23 03:23:00,34.9,31.7,29.97,SSE,157,0.0,0.0,88,0.00,,---,0.00,VWS V14.00,2013-02-23 08:23:00,
2013-02-23 03:28:00,34.9,32.0,29.97,SSE,153,2.7,3.6,89,0.00,,---,0.00,VWS V14.00,2013-02-23 08:28:00,
2013-02-23 03:33:00,34.9,32.0,30.03,SSW,193,0.0,0.0,89,0.00,,---,0.00,VWS V14.00,2013-02-23 08:33:00,
2013-02-23 03:38:00,35.1,32.2,30.03,South,177,0.0,0.0,89,0.00,,---,0.00,VWS V14.00,2013-02-23 08:38:00,
2013-02-23 03:43:00,35.1,32.2,30.03,SSE,151,0.0,0.0,89,0.00,,---,0.00,VWS V14.00,2013-02-23 08:43:00,
2013-02-23 03:48:00,35.1,32.2,30.00,South,184,0.0,0.0,89,0.00,,---,0.00,VWS V14.00,2013-02-23 08:48:00,
2013-02-23 03:54:00,35.1,32.2,30.00,NE,51,0.0,0.0,89,0.00,,---,0.00,VWS V14.00,2013-02-23 08:54:00,
2013-02-23 03:59:00,35.1,32.2,30.00,SSW,196,0.0,0.0,89,0.00,,---,0.00,VWS V14.00,2013-02-23 08:59:00,
2013-02-23 04:04:00,35.1,32.2,30.00,ENE,59,2.7,3.6,89,0.00,,---,0.00,VWS V14.00,2013-02-23 09:04:00,
2013-02-23 04:09:00,35.1,32.2,30.00,North,7,0.0,0.0,89,0.00,,---,0.00,VWS V14.00,2013-02-23 09:09:00,
2013-02-23 04:14:00,35.1,32.2,30.00,NW,304,0.0,0.0,89,0.00,,---,0.00,VWS V14.00,2013-02-23 09:14:00,
2013-02-23 04:19:00,35.1,32.2,30.00,NW,305,0.0,0.0,89,0.00,,---,0.00,VWS V14.00,2013-02-23 09:19:00,
2013-02-23 04:24:00,35.1,32.2,30.00,NW,305,0.0,0.0,89,0.00,,---,0.00,VWS V14.00,2013-02-23 09:24:00,
2013-02-23 04:29:00,35.1,32.2,30.00,NW,305,0.0,0.0,89,0.00,,---,0.00,VWS V14.00,2013-02-23 09:29:00,
2013-02-23 04:34:00,35.1,32.2,30.00,NW,305,0.0,0.0,89,0.00,,---,0.00,VWS V14.00,2013-02-23 09:34:00,
2013-02-23 04:39:00,35.1,32.2,30.00,ENE,57,0.0,0.0,89,0.00,,---,0.00,VWS V14.00,2013-02-23 09:39:00,
2013-02-23 04:44:00,35.1,32.2,30.00,NE,42,0.0,0.0,89,0.00,,---,0.00,VWS V14.00,2013-02-23 09:44:00,
2013-02-23 04:49:00,35.1,32.2,30.00,NE,43,0.0,0.0,89,0.00,,---,0.00,VWS V14.00,2013-02-23 09:49:00,
2013-02-23 04:54:00,35.1,32.2,30.00,ENE,60,0.0,0.0,89,0.00,,---,0.00,VWS V14.00,2013-02-23 09:54:00,
2013-02-23 05:00:00,35.1,32.2,30.00,South,185,0.0,0.0,89,0.00,,---,0.00,VWS V14.00,2013-02-23 10:00:00,
2013-02-23 05:05:00,35.1,32.2,30.03,South,186,0.0,0.0,89,0.00,,---,0.00,VWS V14.00,2013-02-23 10:05:00,
2013-02-23 05:10:00,35.2,32.3,30.03,South,186,0.0,0.0,89,0.00,,---,0.00,VWS V14.00,2013-02-23 10:10:00,
2013-02-23 05:15:00,35.2,32.3,30.03,NE,49,0.0,0.0,89,0.00,,---,0.00,VWS V14.00,2013-02-23 10:15:00,
2013-02-23 05:20:00,35.2,32.3,30.03,NE,51,0.0,0.0,89,0.00,,---,0.00,VWS V14.00,2013-02-23 10:20:00,
2013-02-23 05:25:00,35.2,32.3,30.03,NE,51,0.0,0.0,89,0.00,,---,0.00,VWS V14.00,2013-02-23 10:25:00,
2013-02-23 05:30:00,35.2,32.3,30.03,NE,51,0.0,0.0,89,0.00,,---,0.00,VWS V14.00,2013-02-23 10:30:00,
2013-02-23 05:35:00,35.2,32.3,30.03,NE,51,0.0,0.0,89,0.04,,---,0.04,VWS V14.00,2013-02-23 10:35:00,
2013-02-23 05:40:00,35.2,32.3,30.03,NE,51,0.0,0.0,89,0.04,,---,0.04,VWS V14.00,2013-02-23 10:40:00,
2013-02-23 05:45:00,35.2,32.3,30.00,NE,51,0.0,0.0,89,0.04,,---,0.04,VWS V14.00,2013-02-23 10:45:00,
2013-02-23 05:50:00,35.2,32.3,30.00,NE,51,0.0,0.0,89,0.04,,---,0.04,VWS V14.00,2013-02-23 10:50:00,
2013-02-23 05:55:00,35.2,32.3,30.00,NE,51,0.0,0.0,89,0.04,,---,0.04,VWS V14.00,2013-02-23 10:55:00,
2013-02-23 06:00:00,35.2,32.6,30.00,NE,50,0.0,0.0,90,0.04,,---,0.04,VWS V14.00,2013-02-23 11:00:00,
2013-02-23 06:06:00,35.2,32.6,30.00,NE,44,0.0,0.0,90,0.08,,---,0.08,VWS V14.00,2013-02-23 11:06:00,
2013-02-23 06:11:00,35.2,32.6,30.00,ENE,60,0.0,2.2,90,0.08,,---,0.08,VWS V14.00,2013-02-23 11:11:00,
2013-02-23 06:16:00,35.2,32.6,29.97,East,91,2.7,3.1,90,0.08,,---,0.08,VWS V14.00,2013-02-23 11:16:00,
2013-02-23 06:21:00,35.2,32.6,29.97,ENE,64,4.0,4.0,90,0.08,,---,0.08,VWS V14.00,2013-02-23 11:21:00,
2013-02-23 06:26:00,35.2,32.6,29.97,North,11,3.6,4.0,90,0.08,,---,0.08,VWS V14.00,2013-02-23 11:26:00,
2013-02-23 06:31:00,35.2,32.6,29.94,NE,53,2.7,5.4,90,0.08,,---,0.08,VWS V14.00,2013-02-23 11:31:00,
2013-02-23 06:36:00,35.1,32.4,29.94,ENE,70,3.6,5.8,90,0.04,,---,0.08,VWS V14.00,2013-02-23 11:36:00,
2013-02-23 06:41:00,35.1,32.4,29.94,East,83,0.0,6.3,90,0.04,,---,0.08,VWS V14.00,2013-02-23 11:41:00,
2013-02-23 06:46:00,35.1,32.4,29.94,ENE,62,3.1,3.1,90,0.04,,---,0.08,VWS V14.00,2013-02-23 11:46:00,
2013-02-23 06:51:00,35.1,32.4,29.94,NNW,330,0.0,3.1,90,0.04,,---,0.08,VWS V14.00,2013-02-23 11:51:00,
2013-02-23 06:56:00,35.2,32.6,29.94,ENE,64,0.0,0.0,90,0.04,,---,0.08,VWS V14.00,2013-02-23 11:56:00,
2013-02-23 07:01:00,35.2,32.6,29.94,NE,55,0.0,0.0,90,0.04,,---,0.08,VWS V14.00,2013-02-23 12:01:00,
2013-02-23 07:06:00,35.2,32.6,29.94,ENE,70,3.6,4.0,90,0.00,,---,0.08,VWS V14.00,2013-02-23 12:06:00,
2013-02-23 07:11:00,35.2,32.6,29.94,NNE,19,0.0,0.0,90,0.00,,---,0.08,VWS V14.00,2013-02-23 12:11:00,
2013-02-23 07:16:00,35.2,32.6,29.94,East,80,0.0,2.7,90,0.00,,---,0.08,VWS V14.00,2013-02-23 12:16:00,
2013-02-23 07:21:00,35.2,32.6,29.94,ENE,71,0.0,0.0,90,0.00,,---,0.08,VWS V14.00,2013-02-23 12:21:00,
2013-02-23 07:26:00,35.4,32.8,29.94,NE,34,2.2,2.2,90,0.00,,---,0.08,VWS V14.00,2013-02-23 12:26:00,
2013-02-23 07:32:00,35.4,32.8,29.97,NE,49,0.0,0.0,90,0.00,,---,0.08,VWS V14.00,2013-02-23 12:32:00,
2013-02-23 07:37:00,35.4,32.8,29.97,North,357,2.2,2.7,90,0.00,,---,0.08,VWS V14.00,2013-02-23 12:37:00,
2013-02-23 07:42:00,35.4,32.8,29.97,North,4,0.0,0.0,90,0.04,,---,0.12,VWS V14.00,2013-02-23 12:42:00,
2013-02-23 07:47:00,35.4,32.8,29.97,ENE,62,0.0,0.0,90,0.04,,---,0.12,VWS V14.00,2013-02-23 12:47:00,
2013-02-23 07:52:00,35.4,32.8,29.97,East,80,0.0,0.0,90,0.04,,---,0.12,VWS V14.00,2013-02-23 12:52:00,
2013-02-23 07:57:00,35.4,32.8,29.97,East,89,0.0,0.0,90,0.04,,---,0.12,VWS V14.00,2013-02-23 12:57:00,
2013-02-23 08:02:00,35.4,32.8,29.97,ENE,69,2.2,2.7,90,0.08,,---,0.16,VWS V14.00,2013-02-23 13:02:00,
2013-02-23 08:07:00,35.4,33.1,29.97,NE,45,0.0,0.0,91,0.08,,---,0.16,VWS V14.00,2013-02-23 13:07:00,
2013-02-23 08:12:00,35.6,33.0,29.97,NNE,25,2.2,2.2,90,0.08,,---,0.16,VWS V14.00,2013-02-23 13:12:00,
2013-02-23 08:17:00,35.6,33.0,29.97,NNE,30,0.0,0.0,90,0.08,,---,0.16,VWS V14.00,2013-02-23 13:17:00,
2013-02-23 08:22:00,35.6,33.0,29.97,East,79,3.1,3.1,90,0.08,,---,0.16,VWS V14.00,2013-02-23 13:22:00,
2013-02-23 08:27:00,35.6,33.0,29.97,ENE,69,0.0,0.0,90,0.08,,---,0.16,VWS V14.00,2013-02-23 13:27:00,
2013-02-23 08:33:00,35.6,33.0,29.94,East,90,0.0,2.2,90,0.08,,---,0.16,VWS V14.00,2013-02-23 13:33:00,
2013-02-23 08:38:00,35.6,33.0,29.94,ENE,65,0.0,0.0,90,0.08,,---,0.16,VWS V14.00,2013-02-23 13:38:00,
2013-02-23 08:43:00,35.8,33.1,29.94,ENE,76,0.0,0.0,90,0.04,,---,0.16,VWS V14.00,2013-02-23 13:43:00,
2013-02-23 08:48:00,35.8,33.4,29.97,East,101,0.0,0.0,91,0.08,,---,0.20,VWS V14.00,2013-02-23 13:48:00,
2013-02-23 08:53:00,35.8,33.4,29.97,ENE,58,0.0,0.0,91,0.08,,---,0.20,VWS V14.00,2013-02-23 13:53:00,
2013-02-23 08:58:00,35.8,33.4,29.97,NE,45,0.0,3.6,91,0.08,,---,0.20,VWS V14.00,2013-02-23 13:58:00,
2013-02-23 09:03:00,35.8,33.4,29.97,NE,50,0.0,0.0,91,0.04,,---,0.20,VWS V14.00,2013-02-23 14:03:00,
2013-02-23 09:08:00,36.0,33.6,29.97,NE,49,0.0,0.0,91,0.04,,---,0.20,VWS V14.00,2013-02-23 14:08:00,
2013-02-23 09:13:00,36.1,33.8,29.97,ENE,74,0.0,0.0,91,0.04,,---,0.20,VWS V14.00,2013-02-23 14:13:00,
2013-02-23 09:18:00,36.1,33.8,29.94,NE,46,0.0,2.2,91,0.04,,---,0.20,VWS V14.00,2013-02-23 14:18:00,
2013-02-23 09:23:00,36.1,33.8,29.94,NE,39,0.0,2.2,91,0.04,,---,0.20,VWS V14.00,2013-02-23 14:23:00,
2013-02-23 09:28:00,36.3,34.0,29.94,NNE,19,2.7,3.1,91,0.04,,---,0.20,VWS V14.00,2013-02-23 14:28:00,
2013-02-23 09:33:00,36.3,34.0,29.94,NE,46,0.0,3.6,91,0.04,,---,0.20,VWS V14.00,2013-02-23 14:33:00,
2013-02-23 09:39:00,36.3,34.0,29.94,NNE,23,0.0,0.0,91,0.04,,---,0.20,VWS V14.00,2013-02-23 14:39:00,
2013-02-23 09:44:00,36.5,34.1,29.94,ENE,65,2.2,2.7,91,0.04,,---,0.20,VWS V14.00,2013-02-23 14:44:00,
2013-02-23 09:49:00,36.5,34.1,29.94,ENE,60,0.0,0.0,91,0.00,,---,0.20,VWS V14.00,2013-02-23 14:49:00,
2013-02-23 09:54:00,36.5,34.1,29.94,North,10,0.0,0.0,91,0.00,,---,0.20,VWS V14.00,2013-02-23 14:54:00,
2013-02-23 09:59:00,36.5,34.1,29.94,North,10,0.0,0.0,91,0.00,,---,0.20,VWS V14.00,2013-02-23 14:59:00,
2013-02-23 10:04:00,37.0,34.9,29.94,NE,51,0.0,0.0,92,0.00,,---,0.20,VWS V14.00,2013-02-23 15:04:00,
2013-02-23 10:09:00,37.2,35.1,29.94,NE,37,0.0,0.0,92,0.00,,---,0.20,VWS V14.00,2013-02-23 15:09:00,
2013-02-23 10:14:00,37.2,35.1,29.94,NE,50,0.0,0.0,92,0.00,,---,0.20,VWS V14.00,2013-02-23 15:14:00,
2013-02-23 10:19:00,37.2,35.1,29.94,NE,50,0.0,0.0,92,0.00,,---,0.20,VWS V14.00,2013-02-23 15:19:00,
2013-02-23 10:24:00,37.2,35.1,29.94,NE,50,0.0,0.0,92,0.00,,---,0.20,VWS V14.00,2013-02-23 15:24:00,
2013-02-23 10:29:00,37.4,35.0,29.94,NE,50,0.0,0.0,91,0.00,,---,0.20,VWS V14.00,2013-02-23 15:29:00,
2013-02-23 10:34:00,37.4,35.0,29.97,NE,50,0.0,0.0,91,0.00,,---,0.20,VWS V14.00,2013-02-23 15:34:00,
2013-02-23 10:40:00,37.4,35.0,29.97,NE,50,0.0,0.0,91,0.00,,---,0.20,VWS V14.00,2013-02-23 15:40:00,
2013-02-23 10:45:00,37.4,35.0,29.94,NE,50,0.0,0.0,91,0.00,,---,0.20,VWS V14.00,2013-02-23 15:45:00,
2013-02-23 10:50:00,37.4,35.0,29.94,NE,49,0.0,0.0,91,0.00,,---,0.20,VWS V14.00,2013-02-23 15:50:00,
2013-02-23 10:55:00,37.4,35.0,29.94,NE,49,0.0,0.0,91,0.00,,---,0.20,VWS V14.00,2013-02-23 15:55:00,
2013-02-23 11:00:00,38.1,35.7,29.94,NE,50,0.0,0.0,91,0.00,,---,0.20,VWS V14.00,2013-02-23 16:00:00,
2013-02-23 11:05:00,38.1,35.7,29.94,NE,50,0.0,0.0,91,0.00,,---,0.20,VWS V14.00,2013-02-23 16:05:00,
2013-02-23 11:10:00,38.1,35.7,29.94,NE,50,0.0,0.0,91,0.00,,---,0.20,VWS V14.00,2013-02-23 16:10:00,
2013-02-23 11:15:00,38.1,35.7,29.94,NE,50,0.0,0.0,91,0.00,,---,0.20,VWS V14.00,2013-02-23 16:15:00,
2013-02-23 11:20:00,38.7,36.5,29.94,NE,50,0.0,0.0,92,0.00,,---,0.20,VWS V14.00,2013-02-23 16:20:00,
2013-02-23 11:25:00,38.7,36.5,29.94,NE,50,0.0,0.0,92,0.00,,---,0.20,VWS V14.00,2013-02-23 16:25:00,
2013-02-23 11:30:00,38.7,36.5,29.94,NE,50,0.0,0.0,92,0.00,,---,0.20,VWS V14.00,2013-02-23 16:30:00,
2013-02-23 11:35:00,38.7,36.5,29.94,NE,50,0.0,0.0,92,0.00,,---,0.20,VWS V14.00,2013-02-23 16:35:00,
2013-02-23 11:41:00,38.7,36.5,29.94,NE,50,0.0,0.0,92,0.00,,---,0.20,VWS V14.00,2013-02-23 16:41:00,
2013-02-23 11:46:00,39.0,36.6,29.94,NE,50,0.0,0.0,91,0.00,,---,0.20,VWS V14.00,2013-02-23 16:46:00,
2013-02-23 11:51:00,39.0,36.6,29.94,NE,50,0.0,0.0,91,0.00,,---,0.20,VWS V14.00,2013-02-23 16:51:00,
2013-02-23 11:56:00,39.0,36.6,29.94,NE,50,0.0,0.0,91,0.00,,---,0.20,VWS V14.00,2013-02-23 16:56:00,
2013-02-23 12:01:00,39.6,37.2,29.94,NE,50,0.0,0.0,91,0.00,,---,0.20,VWS V14.00,2013-02-23 17:01:00,
2013-02-23 12:06:00,39.7,37.3,29.94,NE,50,0.0,0.0,91,0.00,,---,0.20,VWS V14.00,2013-02-23 17:06:00,
2013-02-23 12:11:00,39.9,37.5,29.94,NE,50,0.0,0.0,91,0.00,,---,0.20,VWS V14.00,2013-02-23 17:11:00,
2013-02-23 12:16:00,40.1,37.7,29.91,NE,50,0.0,0.0,91,0.00,,---,0.20,VWS V14.00,2013-02-23 17:16:00,
2013-02-23 12:21:00,40.1,37.7,29.91,NE,50,0.0,0.0,91,0.00,,---,0.20,VWS V14.00,2013-02-23 17:21:00,
2013-02-23 12:27:00,40.1,37.7,29.91,NE,50,0.0,0.0,91,0.00,,---,0.20,VWS V14.00,2013-02-23 17:27:00,
2013-02-23 12:32:00,40.1,37.7,29.91,NE,50,0.0,0.0,91,0.00,,---,0.20,VWS V14.00,2013-02-23 17:32:00,
2013-02-23 12:37:00,40.1,37.7,29.91,NE,55,0.0,0.0,91,0.00,,---,0.20,VWS V14.00,2013-02-23 17:37:00,
2013-02-23 12:42:00,40.1,37.7,29.91,ESE,112,0.0,0.0,91,0.00,,---,0.20,VWS V14.00,2013-02-23 17:42:00,
2013-02-23 12:47:00,40.1,37.7,29.94,ESE,112,0.0,0.0,91,0.00,,---,0.20,VWS V14.00,2013-02-23 17:47:00,
2013-02-23 12:52:00,40.1,37.7,29.94,ESE,112,0.0,0.0,91,0.00,,---,0.20,VWS V14.00,2013-02-23 17:52:00,
2013-02-23 12:57:00,40.1,37.7,29.94,NE,45,0.0,0.0,91,0.00,,---,0.20,VWS V14.00,2013-02-23 17:57:00,
2013-02-23 13:02:00,40.1,37.7,29.91,NE,45,0.0,0.0,91,0.00,,---,0.20,VWS V14.00,2013-02-23 18:02:00,
2013-02-23 13:07:00,40.1,37.7,29.91,West,279,0.0,0.0,91,0.00,,---,0.20,VWS V14.00,2013-02-23 18:07:00,
2013-02-23 13:12:00,40.1,37.7,29.91,West,271,0.0,0.0,91,0.00,,---,0.20,VWS V14.00,2013-02-23 18:12:00,
2013-02-23 13:17:00,40.1,37.7,29.91,NW,306,0.0,0.0,91,0.00,,---,0.20,VWS V14.00,2013-02-23 18:17:00,
2013-02-23 13:22:00,40.1,37.7,29.91,SW,218,0.0,2.7,91,0.00,,---,0.20,VWS V14.00,2013-02-23 18:22:00,
2013-02-23 13:27:00,40.1,37.7,29.91,West,270,0.0,0.0,91,0.00,,---,0.20,VWS V14.00,2013-02-23 18:27:00,
2013-02-23 13:32:00,40.1,37.7,29.91,WNW,289,0.0,0.0,91,0.00,,---,0.20,VWS V14.00,2013-02-23 18:32:00,
2013-02-23 13:38:00,40.1,37.7,29.91,WSW,250,0.0,0.0,91,0.00,,---,0.20,VWS V14.00,2013-02-23 18:38:00,
2013-02-23 13:43:00,40.1,37.7,29.91,NNW,341,0.0,0.0,91,0.00,,---,0.20,VWS V14.00,2013-02-23 18:43:00,
2013-02-23 13:48:00,40.1,37.7,29.88,NNE,20,0.0,0.0,91,0.00,,---,0.20,VWS V14.00,2013-02-23 18:48:00,
2013-02-23 13:53:00,40.1,37.7,29.88,ENE,61,0.0,3.1,91,0.00,,---,0.20,VWS V14.00,2013-02-23 18:53:00,
2013-02-23 13:58:00,40.1,37.7,29.88,ENE,65,0.0,0.0,91,0.00,,---,0.20,VWS V14.00,2013-02-23 18:58:00,
2013-02-23 14:03:00,40.1,37.7,29.88,NW,304,0.0,0.0,91,0.00,,---,0.20,VWS V14.00,2013-02-23 19:03:00,
2013-02-23 14:08:00,45.0,39.2,29.88,NW,325,0.0,4.9,80,0.00,,---,0.20,VWS V14.00,2013-02-23 19:08:00,
2013-02-23 14:13:00,45.0,39.2,29.88,West,260,0.0,0.0,80,0.00,,---,0.20,VWS V14.00,2013-02-23 19:13:00,
2013-02-23 14:18:00,45.1,38.4,29.88,NW,320,0.0,0.0,77,0.00,,---,0.20,VWS V14.00,2013-02-23 19:18:00,
2013-02-23 14:23:00,45.3,38.5,29.88,West,280,0.0,2.7,77,0.00,,---,0.20,VWS V14.00,2013-02-23 19:23:00,
2013-02-23 14:28:00,45.3,38.2,29.88,West,280,0.0,0.0,76,0.00,,---,0.20,VWS V14.00,2013-02-23 19:28:00,
2013-02-23 14:33:00,45.5,38.0,29.88,NE,37,0.0,0.0,75,0.00,,---,0.20,VWS V14.00,2013-02-23 19:33:00,
2013-02-23 14:38:00,46.0,38.6,29.88,West,274,2.2,3.1,75,0.00,,---,0.20,VWS V14.00,2013-02-23 19:38:00,
2013-02-23 14:44:00,46.0,38.6,29.88,NW,316,0.0,3.1,75,0.00,,---,0.20,VWS V14.00,2013-02-23 19:44:00,
2013-02-23 14:49:00,46.0,38.2,29.88,West,274,0.0,2.7,74,0.00,,---,0.20,VWS V14.00,2013-02-23 19:49:00,
2013-02-23 14:54:00,46.0,38.2,29.88,West,274,0.0,0.0,74,0.00,,---,0.20,VWS V14.00,2013-02-23 19:54:00,
2013-02-23 14:59:00,46.6,38.0,29.88,NW,317,0.0,0.0,72,0.00,,---,0.20,VWS V14.00,2013-02-23 19:59:00,
2013-02-23 15:04:00,46.6,38.0,29.85,SW,226,2.2,2.7,72,0.00,,---,0.20,VWS V14.00,2013-02-23 20:04:00,
2013-02-23 15:09:00,46.8,37.9,29.85,NW,306,0.0,0.0,71,0.00,,---,0.20,VWS V14.00,2013-02-23 20:09:00,
2013-02-23 15:14:00,46.8,37.9,29.85,WSW,257,0.0,3.1,71,0.00,,---,0.20,VWS V14.00,2013-02-23 20:14:00,
2013-02-23 15:19:00,46.8,37.9,29.85,WSW,258,0.0,0.0,71,0.00,,---,0.20,VWS V14.00,2013-02-23 20:19:00,
2013-02-23 15:24:00,46.8,37.9,29.85,NW,304,0.0,0.0,71,0.00,,---,0.20,VWS V14.00,2013-02-23 20:24:00,
2013-02-23 15:29:00,46.8,37.9,29.85,West,268,0.0,0.0,71,0.00,,---,0.20,VWS V14.00,2013-02-23 20:29:00,
2013-02-23 15:34:00,46.8,37.9,29.85,WSW,238,0.0,0.0,71,0.00,,---,0.20,VWS V14.00,2013-02-23 20:34:00,
2013-02-23 15:40:00,46.8,37.9,29.85,WSW,238,0.0,0.0,71,0.00,,---,0.20,VWS V14.00,2013-02-23 20:40:00,
2013-02-23 15:45:00,46.8,37.9,29.85,West,275,0.0,0.0,71,0.00,,---,0.20,VWS V14.00,2013-02-23 20:45:00,
2013-02-23 15:50:00,46.8,37.9,29.85,WNW,283,0.0,0.0,71,0.00,,---,0.20,VWS V14.00,2013-02-23 20:50:00,
2013-02-23 15:55:00,46.8,37.9,29.85,NNE,22,0.0,0.0,71,0.00,,---,0.20,VWS V14.00,2013-02-23 20:55:00,
2013-02-23 16:00:00,46.8,37.9,29.85,NNE,22,0.0,0.0,71,0.00,,---,0.20,VWS V14.00,2013-02-23 21:00:00,
2013-02-23 16:05:00,46.8,37.9,29.85,NNE,22,0.0,0.0,71,0.00,,---,0.20,VWS V14.00,2013-02-23 21:05:00,
2013-02-23 16:10:00,46.8,37.9,29.85,South,182,0.0,0.0,71,0.00,,---,0.20,VWS V14.00,2013-02-23 21:10:00,
2013-02-23 16:15:00,46.8,37.9,29.85,SSW,210,3.6,4.0,71,0.00,,---,0.20,VWS V14.00,2013-02-23 21:15:00,
2013-02-23 16:20:00,46.8,37.9,29.85,SSW,212,0.0,0.0,71,0.00,,---,0.20,VWS V14.00,2013-02-23 21:20:00,
2013-02-23 16:25:00,46.8,37.9,29.85,SSW,212,0.0,0.0,71,0.00,,---,0.20,VWS V14.00,2013-02-23 21:25:00,
2013-02-23 16:30:00,46.8,37.9,29.85,SSW,205,2.7,4.0,71,0.00,,---,0.20,VWS V14.00,2013-02-23 21:30:00,
2013-02-23 16:35:00,46.8,37.9,29.85,SSW,205,0.0,0.0,71,0.00,,---,0.20,VWS V14.00,2013-02-23 21:35:00,
2013-02-23 16:40:00,46.8,37.9,29.85,SSW,205,0.0,0.0,71,0.00,,---,0.20,VWS V14.00,2013-02-23 21:40:00,
2013-02-23 16:45:00,46.8,37.9,29.85,WNW,284,4.0,4.0,71,0.00,,---,0.20,VWS V14.00,2013-02-23 21:45:00,
2013-02-23 16:50:00,46.8,37.9,29.85,NW,305,0.0,0.0,71,0.00,,---,0.20,VWS V14.00,2013-02-23 21:50:00,
2013-02-23 16:55:00,46.8,37.9,29.85,SW,223,0.0,2.2,71,0.00,,---,0.20,VWS V14.00,2013-02-23 21:55:00,
2013-02-23 17:00:00,46.8,37.9,29.85,SW,223,0.0,0.0,71,0.00,,---,0.20,VWS V14.00,2013-02-23 22:00:00,
2013-02-23 17:05:00,46.8,37.9,29.85,SW,223,0.0,0.0,71,0.00,,---,0.20,VWS V14.00,2013-02-23 22:05:00,
2013-02-23 17:10:00,47.3,33.3,29.85,NW,314,0.0,0.0,58,0.00,,---,0.20,VWS V14.00,2013-02-23 22:10:00,
2013-02-23 17:15:00,47.3,33.3,29.85,NW,314,0.0,0.0,58,0.00,,---,0.20,VWS V14.00,2013-02-23 22:15:00,
2013-02-23 17:20:00,47.3,33.3,29.85,NW,314,0.0,0.0,58,0.00,,---,0.20,VWS V14.00,2013-02-23 22:20:00,
2013-02-23 17:25:00,47.3,33.3,29.85,NW,314,0.0,0.0,58,0.00,,---,0.20,VWS V14.00,2013-02-23 22:25:00,
2013-02-23 17:30:00,47.3,33.3,29.85,NW,314,0.0,0.0,58,0.00,,---,0.20,VWS V14.00,2013-02-23 22:30:00,
2013-02-23 17:35:00,47.3,33.3,29.85,NW,314,0.0,0.0,58,0.00,,---,0.20,VWS V14.00,2013-02-23 22:35:00,
2013-02-23 17:40:00,47.3,33.3,29.85,NW,314,0.0,0.0,58,0.00,,---,0.20,VWS V14.00,2013-02-23 22:40:00,
2013-02-23 17:45:00,47.3,33.3,29.82,NW,314,0.0,0.0,58,0.00,,---,0.20,VWS V14.00,2013-02-23 22:45:00,
2013-02-23 17:50:00,47.3,33.3,29.82,NW,314,0.0,0.0,58,0.00,,---,0.20,VWS V14.00,2013-02-23 22:50:00,
2013-02-23 17:55:00,47.3,33.3,29.82,NW,314,0.0,0.0,58,0.00,,---,0.20,VWS V14.00,2013-02-23 22:55:00,
2013-02-23 18:00:00,47.3,33.3,29.82,NW,314,0.0,0.0,58,0.00,,---,0.20,VWS V14.00,2013-02-23 23:00:00,
2013-02-23 18:05:00,47.3,33.3,29.82,NW,314,0.0,0.0,58,0.00,,---,0.20,VWS V14.00,2013-02-23 23:05:00,
2013-02-23 18:10:00,47.3,33.3,29.82,NW,314,0.0,0.0,58,0.00,,---,0.20,VWS V14.00,2013-02-23 23:10:00,
2013-02-23 18:15:00,47.3,33.3,29.82,NW,314,0.0,0.0,58,0.00,,---,0.20,VWS V14.00,2013-02-23 23:15:00,
2013-02-23 18:20:00,47.3,33.3,29.82,NW,314,0.0,0.0,58,0.00,,---,0.20,VWS V14.00,2013-02-23 23:20:00,
2013-02-23 18:25:00,47.3,33.3,29.82,NW,314,0.0,0.0,58,0.00,,---,0.20,VWS V14.00,2013-02-23 23:25:00,
2013-02-23 18:30:00,47.3,33.3,29.82,NW,314,0.0,0.0,58,0.00,,---,0.20,VWS V14.00,2013-02-23 23:30:00,
2013-02-23 18:35:00,47.3,33.3,29.82,NW,314,0.0,0.0,58,0.00,,---,0.20,VWS V14.00,2013-02-23 23:35:00,
2013-02-23 18:40:00,47.3,33.3,29.82,NW,314,0.0,0.0,58,0.00,,---,0.20,VWS V14.00,2013-02-23 23:40:00,
2013-02-23 18:46:00,47.3,33.3,29.82,NW,314,0.0,0.0,58,0.00,,---,0.20,VWS V14.00,2013-02-23 23:46:00,
2013-02-23 18:51:00,47.3,33.3,29.82,NW,314,0.0,0.0,58,0.00,,---,0.20,VWS V14.00,2013-02-23 23:51:00,
2013-02-23 18:56:00,47.3,33.3,29.82,NW,314,0.0,0.0,58,0.00,,---,0.20,VWS V14.00,2013-02-23 23:56:00,
2013-02-23 19:01:00,47.3,33.3,29.82,NW,314,0.0,0.0,58,0.00,,---,0.20,VWS V14.00,2013-02-24 00:01:00,
2013-02-23 19:06:00,47.3,33.3,29.82,NW,314,0.0,0.0,58,0.00,,---,0.20,VWS V14.00,2013-02-24 00:06:00,
2013-02-23 19:11:00,47.3,33.3,29.82,NW,314,0.0,0.0,58,0.00,,---,0.20,VWS V14.00,2013-02-24 00:11:00,
2013-02-23 19:16:00,47.3,33.3,29.82,NW,314,0.0,0.0,58,0.00,,---,0.20,VWS V14.00,2013-02-24 00:16:00,
2013-02-23 19:21:00,47.3,33.3,29.82,NW,314,0.0,0.0,58,0.00,,---,0.20,VWS V14.00,2013-02-24 00:21:00,
2013-02-23 19:26:00,47.3,33.3,29.82,NW,314,0.0,0.0,58,0.00,,---,0.20,VWS V14.00,2013-02-24 00:26:00,
2013-02-23 19:31:00,47.3,33.3,29.82,NW,314,0.0,0.0,58,0.00,,---,0.20,VWS V14.00,2013-02-24 00:31:00,
2013-02-23 19:36:00,47.3,33.3,29.82,NW,314,0.0,0.0,58,0.00,,---,0.20,VWS V14.00,2013-02-24 00:36:00,
2013-02-23 19:41:00,47.3,33.3,29.82,NW,314,0.0,0.0,58,0.00,,---,0.20,VWS V14.00,2013-02-24 00:41:00,
2013-02-23 19:46:00,47.3,33.3,29.82,NW,314,0.0,0.0,58,0.00,,---,0.20,VWS V14.00,2013-02-24 00:46:00,
2013-02-23 19:51:00,47.3,33.3,29.82,NW,314,0.0,0.0,58,0.00,,---,0.20,VWS V14.00,2013-02-24 00:51:00,
2013-02-23 19:56:00,47.3,33.3,29.82,NW,314,0.0,0.0,58,0.00,,---,0.20,VWS V14.00,2013-02-24 00:56:00,
2013-02-23 20:01:00,47.3,33.3,29.82,WNW,296,0.0,0.0,58,0.00,,---,0.20,VWS V14.00,2013-02-24 01:01:00,
2013-02-23 20:06:00,47.3,33.3,29.82,WNW,296,0.0,0.0,58,0.00,,---,0.20,VWS V14.00,2013-02-24 01:06:00,
2013-02-23 20:11:00,47.3,33.3,29.82,WNW,296,0.0,0.0,58,0.00,,---,0.20,VWS V14.00,2013-02-24 01:11:00,
2013-02-23 20:16:00,47.3,33.3,29.82,WNW,297,0.0,0.0,58,0.00,,---,0.20,VWS V14.00,2013-02-24 01:16:00,
2013-02-23 20:21:00,43.9,36.8,29.82,WNW,296,0.0,0.0,76,0.00,,---,0.20,VWS V14.00,2013-02-24 01:21:00,
2013-02-23 20:26:00,43.9,36.8,29.82,WNW,297,0.0,0.0,76,0.00,,---,0.20,VWS V14.00,2013-02-24 01:26:00,
2013-02-23 20:31:00,43.9,36.8,29.82,WNW,296,0.0,0.0,76,0.00,,---,0.20,VWS V14.00,2013-02-24 01:31:00,
2013-02-23 20:36:00,43.9,36.8,29.82,WNW,296,0.0,0.0,76,0.00,,---,0.20,VWS V14.00,2013-02-24 01:36:00,
2013-02-23 20:41:00,43.9,36.8,29.82,WNW,296,0.0,0.0,76,0.00,,---,0.20,VWS V14.00,2013-02-24 01:41:00,
2013-02-23 20:46:00,43.9,36.8,29.82,WNW,296,0.0,0.0,76,0.00,,---,0.20,VWS V14.00,2013-02-24 01:46:00,
2013-02-23 20:51:00,43.9,36.8,29.82,WNW,296,0.0,0.0,76,0.00,,---,0.20,VWS V14.00,2013-02-24 01:51:00,
2013-02-23 20:57:00,43.9,36.8,29.82,WNW,296,0.0,0.0,76,0.00,,---,0.20,VWS V14.00,2013-02-24 01:57:00,
2013-02-23 21:02:00,43.7,37.0,29.82,WNW,296,0.0,0.0,77,0.00,,---,0.20,VWS V14.00,2013-02-24 02:02:00,
2013-02-23 21:07:00,43.7,37.0,29.82,WNW,296,0.0,0.0,77,0.00,,---,0.20,VWS V14.00,2013-02-24 02:07:00,
2013-02-23 21:12:00,43.7,37.0,29.82,WNW,296,0.0,0.0,77,0.00,,---,0.20,VWS V14.00,2013-02-24 02:12:00,
2013-02-23 21:17:00,43.7,37.0,29.82,WNW,297,0.0,0.0,77,0.00,,---,0.20,VWS V14.00,2013-02-24 02:17:00,
2013-02-23 21:22:00,43.7,37.0,29.82,WNW,296,0.0,0.0,77,0.00,,---,0.20,VWS V14.00,2013-02-24 02:22:00,
2013-02-23 21:27:00,43.7,37.0,29.82,WNW,296,0.0,0.0,77,0.00,,---,0.20,VWS V14.00,2013-02-24 02:27:00,
2013-02-23 21:32:00,43.7,37.0,29.82,WNW,288,2.7,4.0,77,0.00,,---,0.20,VWS V14.00,2013-02-24 02:32:00,
2013-02-23 21:37:00,43.7,37.0,29.82,West,274,0.0,0.0,77,0.00,,---,0.20,VWS V14.00,2013-02-24 02:37:00,
2013-02-23 21:42:00,43.7,37.0,29.82,West,274,0.0,0.0,77,0.00,,---,0.20,VWS V14.00,2013-02-24 02:42:00,
2013-02-23 21:47:00,43.7,37.0,29.82,NW,305,0.0,0.0,77,0.00,,---,0.20,VWS V14.00,2013-02-24 02:47:00,
2013-02-23 21:52:00,43.2,37.1,29.82,West,265,0.0,0.0,79,0.00,,---,0.20,VWS V14.00,2013-02-24 02:52:00,
2013-02-23 21:57:00,43.2,37.1,29.82,West,265,0.0,0.0,79,0.00,,---,0.20,VWS V14.00,2013-02-24 02:57:00,
2013-02-23 22:03:00,43.2,37.4,29.82,West,265,0.0,0.0,80,0.00,,---,0.20,VWS V14.00,2013-02-24 03:03:00,
2013-02-23 22:08:00,43.2,37.4,29.82,West,265,0.0,0.0,80,0.00,,---,0.20,VWS V14.00,2013-02-24 03:08:00,
2013-02-23 22:13:00,43.2,37.4,29.82,West,265,0.0,0.0,80,0.00,,---,0.20,VWS V14.00,2013-02-24 03:13:00,
2013-02-23 22:18:00,43.2,37.4,29.82,West,265,0.0,0.0,80,0.00,,---,0.20,VWS V14.00,2013-02-24 03:18:00,
2013-02-23 22:23:00,43.2,37.4,29.82,West,265,0.0,0.0,80,0.00,,---,0.20,VWS V14.00,2013-02-24 03:23:00,
2013-02-23 22:28:00,43.2,37.4,29.82,West,265,0.0,0.0,80,0.00,,---,0.20,VWS V14.00,2013-02-24 03:28:00,
2013-02-23 22:33:00,43.2,37.4,29.82,West,265,0.0,0.0,80,0.00,,---,0.20,VWS V14.00,2013-02-24 03:33:00,
2013-02-23 22:38:00,43.2,37.4,29.82,West,265,0.0,0.0,80,0.00,,---,0.20,VWS V14.00,2013-02-24 03:38:00,
2013-02-23 22:43:00,43.2,37.4,29.82,West,265,0.0,0.0,80,0.00,,---,0.20,VWS V14.00,2013-02-24 03:43:00,
2013-02-23 22:48:00,43.2,37.4,29.79,West,265,0.0,0.0,80,0.00,,---,0.20,VWS V14.00,2013-02-24 03:48:00,
2013-02-23 22:53:00,43.2,37.4,29.79,WSW,253,0.0,0.0,80,0.00,,---,0.20,VWS V14.00,2013-02-24 03:53:00,
2013-02-23 22:58:00,43.2,37.4,29.79,WSW,253,0.0,0.0,80,0.00,,---,0.20,VWS V14.00,2013-02-24 03:58:00,
2013-02-23 23:04:00,43.2,37.4,29.79,WSW,253,0.0,0.0,80,0.00,,---,0.00,VWS V14.00,2013-02-24 04:04:00,
2013-02-23 23:09:00,43.2,37.4,29.79,WSW,253,0.0,0.0,80,0.00,,---,0.00,VWS V14.00,2013-02-24 04:09:00,
2013-02-23 23:14:00,43.2,37.4,29.79,WSW,253,0.0,0.0,80,0.00,,---,0.00,VWS V14.00,2013-02-24 04:14:00,
2013-02-23 23:19:00,43.2,37.4,29.79,WSW,253,0.0,0.0,80,0.00,,---,0.00,VWS V14.00,2013-02-24 04:19:00,
2013-02-23 23:24:00,43.2,37.4,29.79,WSW,253,0.0,0.0,80,0.00,,---,0.00,VWS V14.00,2013-02-24 04:24:00,
2013-02-23 23:29:00,43.2,37.4,29.79,WSW,253,0.0,0.0,80,0.00,,---,0.00,VWS V14.00,2013-02-24 04:29:00,
2013-02-23 23:34:00,43.2,37.4,29.79,WSW,253,0.0,0.0,80,0.00,,---,0.00,VWS V14.00,2013-02-24 04:34:00,
2013-02-23 23:39:00,43.2,37.4,29.79,WSW,253,0.0,0.0,80,0.00,,---,0.00,VWS V14.00,2013-02-24 04:39:00,
2013-02-23 23:44:00,42.8,38.0,29.79,WSW,253,0.0,0.0,83,0.00,,---,0.00,VWS V14.00,2013-02-24 04:44:00,
2013-02-23 23:49:00,42.8,38.0,29.79,WSW,253,0.0,0.0,83,0.00,,---,0.00,VWS V14.00,2013-02-24 04:49:00,
2013-02-23 23:54:00,42.8,38.0,29.79,WSW,253,0.0,0.0,83,0.00,,---,0.00,VWS V14.00,2013-02-24 04:54:00,
2013-02-23 23:59:00,42.8,38.0,29.79,WSW,253,0.0,0.0,83,0.00,,---,0.00,VWS V14.00,2013-02-24 04:59:00,